Location: Chmeln�
(49.6483°N, 14.9871°E)
Time: 04:58:58
(UTC+00:00)

Cosmos 1536 Rocket - Pass Details

Date: 18 September 2020
Orbit: 606 x 632 km, 82.5° (Epoch: 29 October)

Event Time Altitude Azimuth Distance (km) Brightness Sun altitude
Rises 18:31:17 0° 352° (N) 2,915 7.4 -14.3°
Reaches altitude 10° 18:33:32 10° 356° (N) 2,008 6.5 -14.7°
Maximum altitude 18:37:58 64° 78° (ENE) 699 3.6 -15.3°
Enters shadow 18:41:16 17° 157° (SSE) 1,574 5.2 -15.8°
